Home   Weather   Luhansk   Past weeks

Flag for Ukraine Past Weather in Luhansk, Ukraine — Yesterday and Last 2 Weeks

Now
84 °F

Sunny.


Feels Like: 81 °F
Forecast: 71 / 92 °F
Wind: 8 mph from Northeast

Location: Rostov-Na-Donu

Current Time: Aug 18, 2017 at 7:24:41 pm

Latest Report: Aug 18, 2017 at 7:00 pm


Visibility: 10 mi

Pressure: 30.01 "Hg

Humidity: 19%

Dew Point: 37 °F

Location of LuhanskLocation

Past Weather in Luhansk — Graph

°F

Luhansk Temperature Yesterday

Maximum temperature yesterday: 91 °F (at 2:00 pm)
Minimum temperature yesterday: 70 °F (at 5:00 am)
Average temperature yesterday: 82 °F

High & Low Weather Summary for the Past Weeks

 TemperatureHumidityPressure
High102 °F (Aug 8, 4:30 pm)57% (Aug 4, 5:00 am)30.15 "Hg (Aug 4, 5:00 am)
Low66 °F (Aug 11, 4:30 am)13% (Aug 18, 1:30 pm)29.77 "Hg (Aug 4, 5:00 pm)
Average84 °F32%29.92 "Hg
* Reported Aug 3 6:00 pm — Aug 18 6:00 pm, Luhansk. Weather by CustomWeather, © 2017

Note: Actual official high and low records may vary slightly from our data, if they occured in-between our weather recording intervals... More about our weather records

Advertising

Luhansk Weather History for the Previous 24 Hours

Scroll right to see more
 ConditionsComfort  
Time TempWeatherWind HumidityBarometerVisibility
6:00 pm
Fri, Aug 18
90 °FSunny.10 mph16%30.01 "Hg10 mi
5:30 pm88 °FSunny.8 mph16%30.01 "Hg10 mi
5:00 pm88 °FSunny.8 mph16%30.01 "Hg10 mi
4:30 pm90 °FSunny.10 mph14%30.01 "Hg10 mi
4:00 pm91 °FSunny.13 mph13%30.01 "Hg10 mi
3:30 pm91 °FSunny.15 mph13%30.01 "Hg10 mi
3:00 pm91 °FSunny.15 mph14%30.01 "Hg10 mi
2:30 pm91 °FClear.17 mph13%30.04 "HgN/A
2:00 pm91 °FClear.17 mph13%30.04 "HgN/A
1:30 pm91 °FClear.20 mph13%30.04 "HgN/A
1:00 pm90 °FSunny.20 mph14%30.04 "Hg10 mi
12:30 pm90 °FSunny.20 mph14%30.04 "Hg10 mi
12:00 pm88 °FSunny.22 mph15%30.04 "Hg10 mi
11:30 am88 °FSunny.17 mph18%30.04 "Hg10 mi
11:00 am86 °FSunny.20 mph18%30.07 "Hg10 mi
10:30 am84 °FSunny.17 mph22%30.07 "Hg10 mi
10:00 am82 °FSunny.17 mph25%30.07 "Hg10 mi
9:30 am81 °FSunny.17 mph28%30.07 "Hg10 mi
9:00 am77 °FSunny.17 mph32%30.04 "Hg10 mi
8:30 am75 °FSunny.17 mph36%30.04 "Hg10 mi
8:00 am73 °FSunny.15 mph38%30.04 "Hg10 mi
7:30 am72 °FSunny.15 mph38%30.04 "Hg10 mi
7:00 am72 °FSunny.17 mph36%30.04 "Hg10 mi
6:30 am72 °FSunny.15 mph36%30.04 "Hg10 mi
6:00 am72 °FSunny.15 mph33%30.01 "Hg10 mi
5:30 am72 °FSunny.15 mph33%30.01 "Hg10 mi
5:00 am73 °FClear.17 mph31%30.01 "Hg5 mi
4:30 am73 °FClear.15 mph33%30.01 "Hg5 mi
4:00 am73 °FClear.13 mph36%29.98 "Hg5 mi
3:30 am73 °FClear.13 mph33%29.98 "Hg5 mi
3:00 am73 °FClear.10 mph36%29.98 "Hg5 mi
2:30 am73 °FClear.10 mph38%29.98 "Hg5 mi
2:00 am73 °FClear.10 mph41%29.98 "Hg5 mi
1:30 am73 °FClear.8 mph38%29.98 "Hg5 mi
1:00 am75 °FClear.10 mph36%29.98 "Hg5 mi
12:30 am77 °FClear.10 mph32%29.95 "Hg5 mi
12:00 am77 °FClear.10 mph32%29.95 "Hg5 mi
11:30 pm
Thu, Aug 17
79 °FClear.13 mph28%29.95 "Hg5 mi
11:00 pm82 °FClear.17 mph23%29.92 "Hg5 mi
10:30 pm82 °FClear.15 mph23%29.92 "Hg5 mi
10:00 pm81 °FClear.13 mph23%29.92 "Hg5 mi
9:30 pm84 °FClear.15 mph19%29.92 "Hg5 mi
9:00 pm84 °FClear.13 mph19%29.92 "Hg5 mi
8:30 pm84 °FClear.13 mph20%29.95 "Hg5 mi
8:00 pm84 °FClear.13 mph20%29.92 "Hg5 mi
7:30 pm84 °FClear.10 mph22%29.92 "Hg10 mi
7:00 pm86 °FSunny.10 mph20%29.92 "Hg10 mi
Weather by CustomWeather, © 2017

See weather overviewHow to use our weather pages